Weather History for Spokane Felts, WA

Change the Weather History Date:

Sunday, April 21, 2013

  Actual Average Record
Temperature  
Mean Temperature 43 °F 48 °F  
Max Temperature 50 °F 60 °F 78 °F (2009)
Min Temperature 36 °F 36 °F 28 °F (2008)
Degree Days  
Heating Degree Days 22 17  
Month to date heating degree days 381 392  
Since 1 July heating degree days 5177 5713  
Cooling Degree Days 0 0  
Month to date cooling degree days 0 0  
Year to date cooling degree days 0 0  
Moisture  
Dew Point 33 °F    
Average Humidity 73    
Maximum Humidity 85    
Minimum Humidity 60    
Precipitation  
Precipitation 0.36 in 0.04 in 0.36 in (2013)
Month to date precipitation 1.14 0.90  
Year to date precipitation 4.37 5.80  
Sea Level Pressure  
Sea Level Pressure 30.12 in    
Wind  
Wind Speed 5 mph (ESE)    
Max Wind Speed 15 mph    
Max Gust Speed 20 mph    
Visibility 9 miles    
Events Rain    
T = Trace of Precipitation, MM = Missing Value Source: NWS Daily Summary

Daily Weather History Graph

Daily Weather History Graph

Search for Another Location

Airport:

Trip Planner

Search our weather history database for the weather conditions in past years. The results will help you decide how hot, cold, wet, or windy it might be!

Date:

Astronomy

Apr. 21, 2013 Rise Set
Actual Time 5:48 AM PDT 7:48 PM PDT
Civil Twilight 5:15 AM PDT 8:21 PM PDT
Nautical Twilight 4:34 AM PDT 9:02 PM PDT
Astronomical Twilight 3:49 AM PDT 9:48 PM PDT
Moon 3:21 PM PDT (4/21) 3:32 AM PDT (4/21)
Length of Visible Light 15h 05m
Length of Day
13h 59m
Waxing Gibbous, 81% of the Moon is Illuminated
Apr 21
Waxing Gibbous
Apr 25
Full
May 2
Last Quarter
May 9
New
May 17
First Quarter

Hourly Weather History & Observations

Time (PDT) Temp. Windchill Dew Point Humidity Pressure Visibility Wind Dir Wind Speed Gust Speed Precip Events Conditions
12:53 AM 43.0 °F - 30.9 °F 62% 30.06 in 10.0 mi Calm Calm - N/A   Clear
1:53 AM 42.1 °F - 30.0 °F 62% 30.06 in 10.0 mi Calm Calm - N/A   Clear
2:53 AM 43.0 °F 39.5 °F 30.9 °F 62% 30.07 in 10.0 mi WSW 5.8 mph - N/A   Mostly Cloudy
3:53 AM 43.0 °F 41.3 °F 32.0 °F 65% 30.07 in 10.0 mi SW 3.5 mph - N/A   Mostly Cloudy
4:53 AM 41.0 °F - 32.0 °F 70% 30.09 in 10.0 mi Calm Calm - N/A   Clear
5:53 AM 41.0 °F - 30.9 °F 67% 30.09 in 10.0 mi Calm Calm - N/A   Overcast
6:53 AM 41.0 °F 37.1 °F 33.1 °F 73% 30.11 in 10.0 mi SW 5.8 mph - N/A   Mostly Cloudy
7:53 AM 42.1 °F 37.7 °F 34.0 °F 73% 30.11 in 10.0 mi SW 6.9 mph - N/A   Mostly Cloudy
8:53 AM 43.0 °F 40.3 °F 34.0 °F 71% 30.10 in 10.0 mi South 4.6 mph - N/A   Mostly Cloudy
9:53 AM 46.0 °F 44.8 °F 34.0 °F 63% 30.09 in 10.0 mi Variable 3.5 mph - N/A   Mostly Cloudy
10:53 AM 46.9 °F - 33.1 °F 59% 30.09 in 10.0 mi Calm Calm - N/A   Overcast
11:53 AM 48.9 °F - 35.1 °F 59% 30.08 in 10.0 mi Calm Calm - 0.00 in Rain Light Rain
12:53 PM 45.0 °F 41.2 °F 37.0 °F 74% 30.09 in 5.0 mi NNW 6.9 mph 16.1 mph 0.04 in Rain Light Rain
1:53 PM 46.9 °F - 37.9 °F 71% 30.09 in 10.0 mi NE 3.5 mph - 0.01 in Rain Light Rain
2:46 PM 46.4 °F 42.4 °F 37.4 °F 71% 30.07 in 7.0 mi ESE 8.1 mph - 0.01 in Rain Light Rain
2:53 PM 45.0 °F 40.1 °F 37.9 °F 76% 30.09 in 2.0 mi ESE 9.2 mph - 0.03 in Rain Rain
2:58 PM 44.6 °F 43.1 °F 35.6 °F 71% 30.07 in 5.0 mi Variable 3.5 mph - 0.02 in Rain Rain
3:53 PM 39.0 °F 33.4 °F 35.1 °F 86% 30.13 in 5.0 mi East 8.1 mph - 0.27 in Rain Light Rain
4:13 PM 41.0 °F 38.0 °F 35.6 °F 81% 30.10 in 10.0 mi East 4.6 mph - 0.01 in Rain Light Rain
4:53 PM 41.0 °F 33.9 °F 36.0 °F 82% 30.14 in 10.0 mi East 12.7 mph - 0.01 in   Overcast
5:53 PM 41.0 °F 34.7 °F 35.1 °F 79% 30.16 in 10.0 mi East 10.4 mph - 0.00 in   Overcast
6:53 PM 42.1 °F 36.6 °F 33.1 °F 70% 30.15 in 10.0 mi East 9.2 mph - N/A   Clear
7:53 PM 39.0 °F - 33.1 °F 79% 30.17 in 10.0 mi Calm Calm - N/A   Partly Cloudy
8:53 PM 39.9 °F 37.8 °F 30.9 °F 70% 30.20 in 10.0 mi NE 3.5 mph - N/A   Mostly Cloudy
9:53 PM 37.0 °F 31.0 °F 30.0 °F 76% 30.24 in 10.0 mi East 8.1 mph - N/A   Partly Cloudy
10:53 PM 39.9 °F 37.8 °F 30.9 °F 70% 30.27 in 10.0 mi Variable 3.5 mph - N/A   Overcast
11:53 PM 39.9 °F 34.5 °F 28.0 °F 63% 30.30 in 10.0 mi ENE 8.1 mph 17.3 mph N/A   Overcast